EHI
20 37 49 40 28 22 22 28 38 50 58 57 51 42 34 27 21 14 8 7 6 4 3 1 1 1 1 1 1 0 0 0 0 0 0 0 0 0 0 0 0 1 3
28 43 51 42 33 28 27 33 43 53 60 61 57 51 46 39 30 19 11 8 7 5 3 2 1 1 1 1 1 0 0 0 0 0 0 0 0 0 0 0 0 1 3
37 46 50 45 41 37 36 42 52 59 63 64 65 64 59 52 43 30 18 11 8 5 3 2 1 2 2 1 1 1 0 0 0 0 0 0 1 2 1 0 0 0 1
38 43 47 48 47 44 44 48 56 62 63 63 66 67 63 57 51 40 26 16 11 7 4 1 0 1 1 1 0 0 0 0 0 0 0 0 1 2 1 0 0 0 0
34 39 46 50 49 48 48 50 57 61 61 60 61 61 60 57 52 43 30 20 14 10 6 2 1 1 0 0 0 0 0 0 0 0 0 0 1 2 1 0 0 0 0
29 34 44 50 49 48 47 50 55 59 59 59 59 58 56 53 49 41 30 20 14 11 7 5 4 2 1 0 0 0 0 0 0 0 0 0 2 3 2 0 0 0 0
29 33 42 48 46 42 41 46 51 55 56 58 58 56 53 49 45 38 28 19 13 10 7 6 6 5 2 1 0 0 0 0 0 0 0 0 3 5 3 1 0 0 0
31 36 43 46 42 38 38 42 46 49 51 54 54 52 48 44 39 33 25 18 13 10 8 6 6 6 5 3 1 0 0 0 0 0 0 2 5 5 3 1 0 0 0
34 37 41 42 40 38 38 40 42 44 46 47 47 44 41 37 31 26 22 17 13 11 9 8 7 7 6 5 2 0 0 0 0 0 0 3 7 5 1 0 0 0 0
38 37 38 38 36 36 37 39 40 41 43 42 39 36 32 28 23 20 17 15 13 11 10 9 8 7 5 3 1 0 0 0 0 0 1 6 9 6 1 0 0 0 0
43 40 37 35 33 31 34 39 40 39 40 36 32 30 26 20 17 16 17 17 14 11 8 8 8 7 4 1 0 0 0 0 0 1 4 10 12 7 2 1 0 0 0
47 44 39 36 32 31 34 38 39 39 38 33 29 28 24 19 16 17 21 21 15 9 7 6 8 7 3 1 0 0 0 0 0 1 7 14 12 6 2 1 0 0 1
49 48 44 39 35 33 35 39 41 42 41 36 32 31 27 25 24 23 24 23 16 10 8 9 8 6 3 2 1 1 0 0 0 1 8 14 9 3 2 1 0 0 1
49 49 46 43 41 38 39 41 42 42 42 41 38 35 32 31 30 28 26 22 18 16 16 16 12 7 5 4 2 1 0 0 0 2 7 10 6 2 2 2 1 1 1
47 46 44 45 45 44 43 41 38 38 38 39 40 39 35 34 33 29 24 21 19 19 21 20 15 10 7 6 3 1 0 0 1 2 5 7 4 1 1 2 2 1 1
41 40 41 44 45 45 42 38 33 31 31 31 35 37 35 35 36 32 24 20 18 18 19 19 17 12 10 8 4 1 1 1 1 2 3 5 3 1 1 1 2 3 3
35 35 36 37 39 40 39 35 31 27 25 25 28 30 30 31 35 33 25 19 18 18 20 20 19 15 12 10 7 4 3 2 2 2 2 3 3 2 2 3 4 4 4
34 34 32 30 31 36 37 35 32 28 24 23 23 24 25 27 30 29 22 19 21 23 23 21 19 16 13 11 9 7 6 5 4 3 1 1 2 2 3 5 5 4 3
34 34 30 26 27 31 34 34 32 29 25 22 22 23 24 25 26 23 18 19 24 27 25 21 19 17 14 12 9 7 6 7 6 3 0 1 2 2 3 5 5 3 2
33 32 30 27 27 30 31 30 29 27 24 22 23 23 23 23 22 19 17 19 23 25 24 21 17 15 15 13 7 5 5 5 5 3 1 1 2 2 2 2 3 2 2
32 31 31 30 30 32 32 30 28 26 23 23 24 22 19 18 18 17 16 18 20 21 21 19 14 11 12 12 8 5 4 3 2 2 1 0 1 1 0 0 2 2 2
28 27 28 29 30 31 31 29 29 27 25 24 23 20 16 14 15 15 17 20 21 20 18 16 13 9 8 9 8 5 4 2 1 1 0 0 0 0 0 0 2 2 2
21 20 21 24 26 27 26 24 24 25 24 22 20 17 14 13 14 16 19 22 23 20 18 17 15 11 9 9 7 4 3 2 1 1 0 0 1 1 1 1 2 3 2
16 16 17 21 24 24 22 19 18 19 20 19 18 16 14 12 12 14 17 20 21 20 19 18 17 14 13 10 5 3 2 2 2 2 1 1 1 2 3 4 4 5 5
11 12 15 19 21 21 19 17 16 17 18 18 17 16 15 13 10 10 13 16 18 19 19 19 17 15 12 8 5 4 3 3 3 2 1 1 1 1 3 5 5 5 4
7 10 14 16 18 19 17 15 16 17 18 18 17 16 15 13 10 8 9 13 16 17 18 17 15 12 9 7 6 5 4 3 2 1 1 0 0 1 3 4 4 4 2
Wind_Speed
12 16 19 15 13 12 12 12 13 14 15 15 15 14 14 14 13 12 11 10 9 8 7 7 6 6 6 6 6 6 6 6 6 6 6 7 6 6 7 7 8 7 11
14 17 19 15 14 13 12 12 13 13 14 14 15 14 14 14 13 12 11 10 9 8 7 7 6 6 6 6 6 6 6 6 6 6 6 7 7 6 6 6 3 6 10
15 17 19 15 15 14 13 12 12 13 14 14 14 14 13 13 13 12 11 10 9 8 7 7 7 6 6 5 6 5 5 5 5 5 7 7 8 8 6 5 4 7 8
16 16 17 17 15 14 14 13 13 13 14 14 13 13 13 13 12 11 11 10 9 8 7 7 6 6 6 5 5 5 5 5 5 6 8 4 6 9 7 6 6 7 8
15 15 16 17 15 14 14 14 13 13 13 13 13 13 13 12 11 10 10 10 9 8 7 7 6 6 6 5 5 5 5 5 5 10 5 3 3 9 7 7 7 7 8
14 15 17 16 15 14 14 14 14 13 13 13 13 12 12 11 10 10 9 9 8 8 7 7 6 6 6 5 5 4 4 5 9 9 4 4 4 8 7 8 8 8 8
13 13 17 15 14 14 14 14 13 13 12 12 12 12 11 10 10 9 9 9 8 8 7 7 7 6 6 6 5 5 5 6 10 6 4 5 3 7 7 8 9 9 9
11 12 15 16 14 14 14 13 12 12 12 11 11 11 10 10 9 9 9 8 8 8 8 7 7 7 6 6 6 6 6 9 10 7 6 5 6 6 7 8 9 10 10
10 11 12 14 14 14 13 12 12 11 11 10 10 10 10 10 9 9 8 8 8 7 7 7 7 7 6 6 6 6 7 8 11 6 7 5 7 6 8 8 9 10 11
9 9 10 11 12 13 13 13 12 11 10 10 10 10 10 10 10 9 9 8 8 8 7 7 7 7 7 7 7 7 8 9 12 8 6 3 7 7 9 9 9 10 11
9 8 9 10 10 10 11 12 13 12 11 11 11 11 10 9 9 9 9 8 8 8 8 8 8 8 9 9 9 8 9 9 9 6 5 3 5 8 9 9 9 10 11
10 9 9 9 10 9 8 8 8 8 9 9 8 9 8 6 6 6 7 8 9 9 10 10 9 10 11 8 10 11 7 9 7 5 4 4 5 9 10 9 10 10 11
10 9 9 8 8 8 6 6 5 4 5 7 7 7 6 6 5 5 4 6 8 10 9 9 10 8 8 6 5 6 7 7 5 5 3 5 6 9 10 11 11 11 11
9 10 8 8 8 7 6 5 5 4 4 5 7 8 6 4 5 4 4 5 5 4 5 5 5 6 7 7 8 8 8 6 5 4 2 5 6 8 10 11 11 11 11
9 9 8 8 7 6 6 5 5 5 4 5 5 6 7 5 5 5 4 4 5 4 5 5 5 5 6 7 7 8 8 8 8 7 4 6 7 8 9 10 11 11 11
7 7 7 7 7 6 6 5 4 4 4 4 4 5 7 5 5 5 5 5 5 5 5 5 6 5 6 6 7 7 8 8 7 8 8 6 9 9 9 9 10 10 11
6 6 6 7 7 7 6 6 4 4 4 4 4 5 6 6 5 5 5 5 5 5 5 5 6 6 6 6 7 8 7 8 7 7 8 7 6 9 10 9 9 9 10
5 5 5 5 6 6 5 4 3 3 4 4 3 4 6 6 6 5 5 5 5 5 5 5 5 5 5 6 6 6 6 6 8 8 8 7 6 5 7 9 9 9 10
4 4 5 5 5 5 5 4 4 3 3 3 3 3 4 6 6 6 5 4 5 5 5 5 4 5 5 5 6 6 6 6 6 7 8 8 6 6 6 6 10 10 10
3 4 5 5 5 5 4 4 4 4 3 3 3 3 4 4 5 5 5 5 6 4 4 4 5 5 5 5 6 5 5 5 5 6 7 6 5 7 6 6 6 8 11
2 3 3 4 4 4 4 4 4 4 3 3 2 2 3 4 4 5 4 4 5 4 4 5 5 6 5 4 5 5 5 6 6 5 5 5 5 5 5 6 6 5 5
1 1 2 3 4 4 3 3 3 3 3 3 2 2 3 4 5 5 5 4 4 4 4 4 4 4 4 3 4 4 5 5 5 5 5 5 5 4 5 6 5 5 6
1 0 1 1 3 3 3 3 2 3 3 3 3 3 4 4 4 4 5 4 4 4 3 4 4 4 4 3 3 3 4 4 3 4 5 5 4 4 5 4 6 6 7
1 1 1 1 2 3 4 4 4 3 3 4 3 3 3 4 4 5 5 5 4 4 3 4 2 3 3 3 3 3 5 4 4 3 4 4 4 5 5 5 6 6 6
1 0 1 1 1 2 3 4 4 4 4 3 3 3 3 2 3 4 4 5 5 4 3 3 2 3 3 3 3 3 4 4 6 5 5 4 4 4 4 5 5 4 5
1 1 0 1 1 1 2 3 4 4 4 3 3 3 3 2 2 2 2 3 3 2 2 3 2 3 3 3 3 4 4 4 4 5 6 5 5 4 4 4 5 4 4
Wind_Direction
160 148 150 163 163 159 154 153 153 155 156 156 156 157 157 156 156 157 156 155 153 150 145 141 139 138 136 137 137 134 133 133 134 137 141 144 146 149 150 153 174 151 124
152 147 152 161 162 160 156 154 153 154 155 155 158 158 159 159 159 160 160 159 158 156 152 148 146 144 141 141 140 140 140 144 146 151 160 165 161 158 160 167 229 113 138
149 147 156 161 163 161 159 154 152 153 154 154 157 160 161 162 163 163 164 163 163 162 159 156 155 152 152 151 150 151 151 156 159 170 203 196 158 160 169 172 157 137 154
151 151 159 158 164 163 161 157 154 154 154 154 156 159 161 163 164 166 168 168 169 168 167 165 164 161 161 162 163 164 166 170 178 206 219 192 165 148 175 178 175 170 170
154 155 149 159 165 165 164 161 159 157 156 157 159 161 163 164 165 167 170 172 173 174 173 173 173 170 170 173 177 181 187 195 203 234 229 204 169 141 176 188 190 187 182
158 156 149 164 167 168 167 166 164 162 161 162 163 164 165 167 169 172 174 175 176 179 180 181 180 179 181 184 190 198 206 214 228 228 212 223 196 150 186 199 202 199 192
160 157 150 165 169 171 171 170 168 166 166 166 168 168 168 170 173 177 181 183 185 186 187 188 188 189 194 198 205 213 222 230 251 243 222 226 183 145 197 210 210 205 200
161 160 148 164 172 174 176 174 173 171 171 171 172 173 174 176 179 183 187 190 192 194 195 194 194 200 206 211 216 224 233 248 242 243 236 234 133 161 207 216 214 211 205
165 163 158 169 173 177 178 178 177 176 175 176 177 179 180 182 185 189 193 197 199 202 205 204 203 207 211 218 225 234 241 249 266 252 241 235 137 186 218 223 220 214 208
168 171 166 175 176 180 180 181 183 182 182 182 183 185 186 189 194 198 203 199 208 210 214 215 214 218 222 225 231 238 243 245 249 248 244 195 149 206 228 229 228 223 214
171 177 177 179 181 189 187 175 184 186 188 190 190 191 199 204 200 198 209 189 211 218 221 223 223 225 229 221 227 234 240 246 243 251 251 131 173 218 230 231 231 230 221
177 182 182 187 185 193 191 179 191 194 188 202 197 194 206 211 215 219 170 191 215 223 225 227 229 228 235 228 209 216 238 243 255 245 229 149 209 228 232 233 231 231 226
178 182 187 187 188 194 193 190 192 195 189 201 203 204 212 215 217 224 206 197 212 219 224 213 222 231 232 241 250 231 244 255 252 253 226 168 220 236 237 236 233 231 230
182 183 187 187 188 198 202 196 197 200 194 201 200 209 211 217 223 224 228 229 224 220 228 231 234 236 245 248 250 255 253 253 258 258 227 175 227 242 242 239 235 230 228
189 187 189 193 188 196 205 212 205 208 207 206 209 208 219 219 222 223 229 237 243 241 228 238 242 241 246 248 251 253 255 257 261 260 240 193 223 240 244 242 235 230 228
196 194 190 193 190 196 203 212 216 213 208 215 211 212 221 226 224 226 228 229 238 246 248 245 245 246 248 251 253 256 260 260 259 260 262 225 210 225 236 240 241 236 233
203 195 193 192 195 202 211 215 217 217 215 218 215 218 221 227 223 228 234 232 234 239 240 245 248 248 244 245 249 252 252 253 257 258 261 264 240 213 217 227 236 235 235
201 192 194 199 194 201 214 219 226 226 222 222 219 222 223 229 230 233 237 236 237 241 240 239 245 250 253 254 251 251 251 248 248 251 252 251 257 255 217 209 223 230 238
192 189 188 198 198 200 205 214 222 220 223 225 224 229 227 225 230 235 245 249 242 240 242 248 240 252 256 258 256 248 251 250 252 253 254 252 248 248 251 211 210 221 232
187 188 193 195 199 201 201 206 219 220 221 224 228 236 240 229 231 239 239 245 246 243 244 246 255 250 259 261 266 262 256 255 251 252 252 246 239 241 245 252 233 215 215
172 178 192 201 196 202 206 214 213 223 225 228 226 237 240 241 238 240 246 237 243 239 244 247 251 246 249 258 264 264 250 242 240 243 245 252 245 243 246 247 250 248 222
101 167 188 204 202 208 214 223 221 231 235 229 232 234 248 245 242 237 246 247 241 244 235 239 243 255 257 247 261 272 264 234 216 230 234 234 246 255 252 246 247 243 248
35 123 182 212 211 209 211 218 216 221 230 229 225 228 238 240 239 241 238 244 243 241 233 234 232 241 262 258 247 267 279 276 279 222 226 234 233 249 259 257 246 245 242
356 61 189 201 209 205 208 211 220 235 245 254 253 247 247 241 239 230 232 229 229 233 231 229 221 244 253 261 248 246 269 294 283 276 245 233 233 243 254 258 255 248 245
355 5 172 173 186 198 205 210 226 236 244 248 253 249 249 236 240 238 232 227 222 224 223 233 231 243 250 261 267 262 257 255 253 264 271 264 254 248 246 253 257 255 251
329 295 215 159 152 205 202 208 220 236 243 250 257 262 252 233 231 236 230 215 216 218 218 231 235 234 249 265 269 265 262 265 259 260 266 264 263 259 255 255 248 244 244